SKYSAT-C10 (42988 NORAD) Tracking and Keplerian Element Data

This shows tracking and keplerian element data for the satellite.

Feedback or suggestion? Click here.




ElementValue
Catalog42988
NameSKYSAT-C10
Epoch Orbit5722
Epoch Day316.55496852
Epoch Year2018
RAAN68.1014
Inclination97.4154
Eccentricity0.0003629
Argument of Perigee299.9742
Mean Anonmoly122.615
Mean Motion15.2153631
Decay Rate7.13E-06
L11 42988U 17068B 18316.55496852 .00000713 00000-0 34702-4 0 9997
L22 42988 97.4154 68.1014 0003629 299.9742 122.6150 15.21536310 57225

Live tracking and technical data element details for SKYSAT-C10 (NORAD 42988). SKYSAT-C10 can be tracked NOW for your location showing map with azimuth and elevation plus other details from your city location.

Track the satellite on the map from your city or location and see movement details for azimuth, elevation, latitude, longitude, range, height, and movement on the map or in text.







IsCatalogInMostPopularTable: catalog: 42988, numindb: 149
Update: records affected: 1



GetName: 42988 SKYSAT-C10

Hit Count: updated at: Mon, 12 Nov 2018 21:43:07 GMT